ロニオス-クリステンセン彗星

316P/LONEOS-Christensen (2006)

English version
Home page
Updated on February 1, 2015

---------------------------------------------------------------------

・ プロフィール

符号 316P/2005 RV25
発見日 2005年9月11日、10月22日
発見光度 17.7等、18.3等
発見者 Lowell Observatory Near-Earth Object Search, Eric Christensen (Mt. Lemmon Survey)

・ 軌道要素

Epoch 2006 Nov. 1.0 TT = JDT 2454040.5
T 2006 Nov. 7.77867 TT                                  MPCW
q   3.6067161            (2000.0)            P               Q
n   0.10947311     Peri.  191.77739     +0.19844942     -0.96730669
a   4.3277723      Node   246.93915     +0.91259409     +0.24112828
e   0.1666114      Incl.    9.88230     +0.35747706     -0.07858067
P   9.00
From 85 observations 2005 Sept. 11-2014 Nov. 17, mean residual 0".7.

・ 光度変化

        m1 = -39.5 + 5 logΔ + 100 log r(t + 400)

---------------------------------------------------------------------

軌道要素はM.P.E.C. 2014-W19に掲載されたものです。
光度グラフはComet for Windowsで作成したものです。

---------------------------------------------------------------------

Copyright(C) Seiichi Yoshida (comet@aerith.net). All rights reserved.